Slayton, MN

7:17 PM CDT on June 24, 2017 (GMT -0500)
Slayton

Weather History for KDVP - April, 2013

Change the Weather History Date:

Saturday, April 27, 2013

  Actual Average (KOTG) Record (KOTG)
Temperature  
Mean Temperature 53 °F -  
Max Temperature 71 °F 59 °F 86 °F (1987)
Min Temperature 35 °F 38 °F 26 °F (2005)
Degree Days  
Heating Degree Days 12    
Growing Degree Days 3 (Base 50)    
Moisture  
Dew Point 32 °F    
Average Humidity 49    
Maximum Humidity 87    
Minimum Humidity 18    
Precipitation  
Precipitation 0.00 in - - ()
Sea Level Pressure  
Sea Level Pressure 30.05 in    
Wind  
Wind Speed 4 mph (SSW)    
Max Wind Speed 12 mph    
Max Gust Speed -    
Visibility 10 miles    
Events      
Averages and records for this station are not official NWS values.
T = Trace of Precipitation, MM = Missing Value Source: NWS Daily Summary

Daily Weather History Graph

Daily Weather History Graph

Search for Another Location

Airport or City:

Trip Planner

Search our weather history database for the weather conditions in past years. The results will help you decide how hot, cold, wet, or windy it might be!

Date:

Astronomy

Apr. 27, 2013 Rise Set
Actual Time 6:20 AM CDT 8:21 PM CDT
Civil Twilight 5:48 AM CDT 8:53 PM CDT
Nautical Twilight 5:10 AM CDT 9:31 PM CDT
Astronomical Twilight 4:28 AM CDT 10:14 PM CDT
Moon 10:56 PM CDT (4/27) 7:36 AM CDT (4/27)
Length of Visible Light 15h 04m
Length of Day
14h 01m
Waning Gibbous, 95% of the Moon is Illuminated
Apr 27
Waning Gibbous
May 2
Last Quarter
May 9
New
May 17
First Quarter
May 24
Full

Hourly Weather History & Observations

Time (CDT) Temp. Windchill Dew Point Humidity Pressure Visibility Wind Dir Wind Speed Gust Speed Precip Events Conditions
12:15 AM 42.3 °F - 34.9 °F 75% 30.17 in 10.0 mi Calm Calm - N/A   Clear
12:35 AM 41.5 °F 38.6 °F 35.1 °F 78% 30.17 in 10.0 mi West 4.6 mph - N/A   Clear
12:54 AM 39.9 °F 37.8 °F 34.5 °F 81% 30.18 in 10.0 mi West 3.5 mph - N/A   Clear
1:15 AM 40.1 °F 36.1 °F 33.6 °F 78% 30.17 in 10.0 mi West 5.8 mph - N/A   Clear
1:35 AM 39.2 °F 34.2 °F 33.6 °F 80% 30.17 in 10.0 mi West 6.9 mph - N/A   Clear
1:55 AM 40.5 °F 37.3 °F 33.4 °F 76% 30.17 in 10.0 mi WNW 4.6 mph - N/A   Clear
2:15 AM 40.6 °F - 33.3 °F 75% 30.17 in 10.0 mi Calm Calm - N/A   Clear
2:35 AM 40.5 °F 37.3 °F 33.1 °F 75% 30.16 in 10.0 mi West 4.6 mph - N/A   Clear
2:55 AM 41.0 °F 39.0 °F 32.7 °F 72% 30.16 in 10.0 mi West 3.5 mph - N/A   Clear
3:15 AM 41.2 °F - 32.5 °F 71% 30.15 in 10.0 mi Calm Calm - N/A   Clear
3:35 AM 40.6 °F - 32.4 °F 72% 30.14 in 10.0 mi Calm Calm - N/A   Clear
3:55 AM 37.0 °F 32.4 °F 32.0 °F 82% 30.15 in 10.0 mi SSE 5.8 mph - N/A   Clear
4:15 AM 35.8 °F 31.9 °F 32.2 °F 87% 30.15 in 10.0 mi South 4.6 mph - N/A   Clear
4:35 AM 36.3 °F 33.7 °F 32.0 °F 84% 30.14 in 10.0 mi SW 3.5 mph - N/A   Clear
4:55 AM 39.6 °F 34.0 °F 31.6 °F 73% 30.14 in 10.0 mi SSW 8.1 mph - N/A   Clear
5:15 AM 40.1 °F 35.3 °F 32.0 °F 73% 30.13 in 10.0 mi SSW 6.9 mph - N/A   Clear
5:34 AM 40.5 °F 36.5 °F 32.0 °F 72% 30.13 in 10.0 mi SSW 5.8 mph - N/A   Clear
5:55 AM 41.0 °F 35.8 °F 31.6 °F 69% 30.13 in 10.0 mi SW 8.1 mph - N/A   Clear
6:15 AM 37.6 °F 33.1 °F 31.6 °F 79% 30.12 in 10.0 mi SW 5.8 mph - N/A   Clear
6:34 AM 39.7 °F 37.6 °F 32.0 °F 74% 30.12 in 10.0 mi SW 3.5 mph - N/A   Clear
6:55 AM 38.5 °F - 31.6 °F 76% 30.13 in 10.0 mi Calm Calm - N/A   Clear
7:15 AM 37.2 °F 34.7 °F 32.2 °F 82% 30.12 in 10.0 mi West 3.5 mph - N/A   Clear
7:34 AM 39.2 °F 37.0 °F 34.3 °F 83% 30.12 in 10.0 mi WSW 3.5 mph - N/A   Clear
7:56 AM 44.2 °F - 37.4 °F 77% 30.12 in 10.0 mi Calm Calm - N/A   Clear
8:15 AM 46.9 °F - 38.8 °F 73% 30.12 in 10.0 mi Calm Calm - N/A   Clear
8:34 AM 50.9 °F - 38.5 °F 62% 30.12 in 10.0 mi Calm Calm - N/A   Clear
8:55 AM 55.0 °F - 36.5 °F 50% 30.12 in 10.0 mi South 8.1 mph - N/A   Clear
9:15 AM 56.5 °F - 34.5 °F 44% 30.11 in 10.0 mi SSW 6.9 mph - N/A   Clear
9:34 AM 58.1 °F - 34.0 °F 40% 30.11 in 10.0 mi SSW 8.1 mph - N/A   Clear
9:55 AM 59.2 °F - 36.1 °F 42% 30.10 in 10.0 mi SSW 9.2 mph - N/A   Clear
10:15 AM 59.9 °F - 34.9 °F 39% 30.10 in 10.0 mi South 9.2 mph - N/A   Clear
10:35 AM 61.2 °F - 33.8 °F 36% 30.10 in 10.0 mi South 8.1 mph - N/A   Clear
10:55 AM 61.7 °F - 34.0 °F 35% 30.10 in 10.0 mi SSW 8.1 mph - N/A   Clear
11:15 AM 62.4 °F - 32.9 °F 33% 30.09 in 10.0 mi SSW 8.1 mph - N/A   Clear
11:35 AM 63.5 °F - 32.4 °F 31% 30.09 in 10.0 mi SSE 8.1 mph - N/A   Clear
11:54 AM 64.2 °F - 33.6 °F 32% 30.09 in 10.0 mi SSW 8.1 mph - N/A   Clear
12:15 PM 64.6 °F - 31.3 °F 29% 30.09 in 10.0 mi SSW 3.5 mph - N/A   Clear
12:35 PM 65.3 °F - 32.0 °F 29% 30.08 in 10.0 mi South 6.9 mph - N/A   Clear
12:54 PM 66.0 °F - 29.8 °F 26% 30.07 in 10.0 mi South 4.6 mph - N/A   Clear
1:15 PM 66.7 °F - 26.1 °F 22% 30.07 in 10.0 mi Calm Calm - N/A   Clear
1:35 PM 67.6 °F - 27.0 °F 22% 30.05 in 10.0 mi Calm Calm - N/A   Clear
1:55 PM 68.0 °F - 28.4 °F 23% 30.05 in 10.0 mi South 6.9 mph - N/A   Clear
2:15 PM 68.7 °F - 25.7 °F 20% 30.04 in 10.0 mi Calm Calm - N/A   Clear
2:35 PM 69.1 °F - 25.0 °F 19% 30.03 in 10.0 mi Calm Calm - N/A   Clear
2:55 PM 69.6 °F - 26.1 °F 20% 30.02 in 10.0 mi Calm Calm - N/A   Clear
3:15 PM 70.0 °F - 23.7 °F 18% 30.01 in 10.0 mi WSW 5.8 mph - N/A   Clear
3:35 PM 70.0 °F - 25.2 °F 19% 30.00 in 10.0 mi West 3.5 mph - N/A   Clear
3:55 PM 70.3 °F - 24.1 °F 18% 30.00 in 10.0 mi WSW 4.6 mph - N/A   Clear
4:14 PM 70.9 °F - 26.8 °F 19% 29.98 in 10.0 mi SSE 3.5 mph - N/A   Clear
4:35 PM 70.7 °F - 27.7 °F 20% 29.98 in 10.0 mi SE 4.6 mph - N/A   Clear
4:55 PM 70.9 °F - 25.5 °F 18% 29.97 in 10.0 mi SSW 4.6 mph - N/A   Clear
5:14 PM 71.2 °F - 26.8 °F 19% 29.96 in 10.0 mi SW 9.2 mph - N/A   Clear
5:35 PM 70.7 °F - 26.8 °F 19% 29.95 in 10.0 mi SW 3.5 mph - N/A   Clear
5:55 PM 70.9 °F - 27.0 °F 19% 29.95 in 10.0 mi South 6.9 mph - N/A   Clear
6:15 PM 71.1 °F - 26.2 °F 19% 29.95 in 10.0 mi SSW 5.8 mph - N/A   Clear
6:35 PM 70.7 °F - 27.0 °F 20% 29.95 in 10.0 mi SSW 6.9 mph - N/A   Clear
6:55 PM 70.0 °F - 30.4 °F 23% 29.94 in 10.0 mi SW 6.9 mph - N/A   Clear
7:15 PM 69.4 °F - 31.1 °F 24% 29.94 in 10.0 mi SSW 5.8 mph - N/A   Clear
7:35 PM 67.1 °F - 34.5 °F 30% 29.93 in 10.0 mi South 4.6 mph - N/A   Clear
7:55 PM 67.1 °F - 31.5 °F 27% 29.94 in 10.0 mi South 4.6 mph - N/A   Clear
8:15 PM 63.5 °F - 35.6 °F 35% 29.94 in 10.0 mi South 5.8 mph - N/A   Clear
8:34 PM 62.8 °F - 35.6 °F 36% 29.92 in 10.0 mi SSE 8.1 mph - N/A   Clear
8:55 PM 60.8 °F - 32.2 °F 34% 29.91 in 10.0 mi SSE 9.2 mph - N/A   Clear
9:15 PM 55.6 °F - 38.3 °F 52% 29.92 in 10.0 mi South 8.1 mph - N/A   Clear
9:35 PM 57.7 °F - 36.9 °F 46% 29.92 in 10.0 mi South 6.9 mph - N/A   Clear
9:55 PM 53.1 °F - 39.2 °F 59% 29.92 in 10.0 mi SSE 6.9 mph - N/A   Clear
10:15 PM 52.2 °F - 39.6 °F 62% 29.91 in 10.0 mi SSE 10.4 mph - N/A   Clear
10:35 PM 52.0 °F - 40.1 °F 64% 29.91 in 10.0 mi South 8.1 mph - N/A   Clear
10:55 PM 52.5 °F - 39.9 °F 62% 29.91 in 10.0 mi SSE 9.2 mph - N/A   Clear
11:15 PM 52.0 °F - 40.3 °F 64% 29.91 in 10.0 mi South 9.2 mph - N/A   Clear
11:35 PM 53.8 °F - 39.6 °F 59% 29.90 in 10.0 mi South 10.4 mph - N/A   Clear
11:55 PM 53.6 °F - 39.2 °F 58% 29.89 in 10.0 mi South 11.5 mph - N/A   Clear